ISR667 LLBG-OMDB

Flight info

Callsign ISR667
Flight time 2h 41m
Altitude 37000
Route SALAM N134 OSAMA DCT EGLOT R652 KULDI N318 NEVOL Q255 LUDEP P559 VUTEB
Aircraft A320/M-SDE2FGHIJ1LORVWY/SB1

Departure

Time 2026-04-24 11:24
Airport Ben Gurion International Airport (LLBG)

Arrival

Time 2026-04-24 14:05
Airport Dubai International Airport (OMDB)
Time Latitude Longitude Altitude Speed Heading
2026-04-24 10:23 32.00628 34.87432 120 ft 0 kts 221°
2026-04-24 11:12 32.00636 34.87441 120 ft 4 kts 222°
2026-04-24 11:13 32.00656 34.87462 118 ft 4 kts 222°
2026-04-24 11:13 32.00672 34.87479 116 ft 4 kts 230°
2026-04-24 11:13 32.00682 34.87505 116 ft 4 kts 277°
2026-04-24 11:13 32.00678 34.87522 117 ft 0 kts 301°
2026-04-24 11:14 32.00689 34.87501 116 ft 4 kts 301°
2026-04-24 11:14 32.00704 34.87473 117 ft 4 kts 301°
2026-04-24 11:14 32.00718 34.87446 115 ft 4 kts 301°
2026-04-24 11:14 32.00726 34.87430 119 ft 0 kts 301°
2026-04-24 11:17 32.00728 34.87426 119 ft 2 kts 301°
2026-04-24 11:17 32.00741 34.87402 117 ft 6 kts 301°
2026-04-24 11:17 32.00769 34.87353 120 ft 8 kts 314°
2026-04-24 11:17 32.00823 34.87363 119 ft 10 kts 52°
2026-04-24 11:18 32.00806 34.87439 118 ft 11 kts 121°
2026-04-24 11:18 32.00764 34.87521 117 ft 13 kts 121°
2026-04-24 11:18 32.00715 34.87615 117 ft 14 kts 121°
2026-04-24 11:18 32.00660 34.87721 117 ft 16 kts 122°
2026-04-24 11:19 32.00599 34.87836 118 ft 16 kts 121°
2026-04-24 11:19 32.00612 34.87936 118 ft 15 kts 32°
2026-04-24 11:19 32.00709 34.88005 115 ft 17 kts 32°
2026-04-24 11:19 32.00816 34.88083 115 ft 19 kts 32°
2026-04-24 11:20 32.00934 34.88168 117 ft 21 kts 33°
2026-04-24 11:20 32.01063 34.88261 117 ft 23 kts 31°
2026-04-24 11:20 32.01200 34.88361 117 ft 24 kts 31°
2026-04-24 11:20 32.01334 34.88485 119 ft 26 kts 45°
2026-04-24 11:21 32.01442 34.88659 115 ft 27 kts 61°
2026-04-24 11:21 32.01502 34.88877 120 ft 28 kts 79°
2026-04-24 11:21 32.01527 34.89044 120 ft 18 kts 79°
2026-04-24 11:21 32.01564 34.89154 118 ft 13 kts 35°
2026-04-24 11:22 32.01659 34.89149 117 ft 13 kts 349°
2026-04-24 11:22 32.01734 34.89134 115 ft 8 kts 351°
2026-04-24 11:22 32.01751 34.89113 118 ft 3 kts 271°
2026-04-24 11:22 32.01746 34.89089 116 ft 3 kts 258°
2026-04-24 11:23 32.01726 34.88958 121 ft 44 kts 260°
2026-04-24 11:23 32.01632 34.88344 119 ft 105 kts 259°
2026-04-24 11:23 32.01472 34.87301 117 ft 151 kts 260°
2026-04-24 11:23 32.01275 34.86010 547 ft 159 kts 264°
2026-04-24 11:24 32.01022 34.84738 1190 ft 162 kts 259°
2026-04-24 11:24 32.00742 34.83424 1739 ft 167 kts 259°
2026-04-24 11:24 32.00460 34.82053 2147 ft 181 kts 259°
2026-04-24 11:24 32.00150 34.80524 2395 ft 203 kts 257°
2026-04-24 11:25 31.99802 34.78818 2669 ft 225 kts 258°
2026-04-24 11:25 31.99424 34.76971 2997 ft 247 kts 257°
2026-04-24 11:25 31.99220 34.74911 3542 ft 259 kts 281°
2026-04-24 11:25 31.99721 34.72861 3953 ft 263 kts 291°
2026-04-24 11:26 32.00355 34.70831 4813 ft 265 kts 293°
2026-04-24 11:26 32.01350 34.69000 5560 ft 269 kts 319°
2026-04-24 11:26 32.02964 34.67923 6393 ft 270 kts 346°
2026-04-24 11:26 32.04826 34.67759 7240 ft 271 kts
2026-04-24 11:27 32.06708 34.68215 7808 ft 282 kts 15°
2026-04-24 11:27 32.08456 34.69297 7964 ft 288 kts 38°
2026-04-24 11:27 32.09729 34.71127 8009 ft 293 kts 63°
2026-04-24 11:27 32.10227 34.73452 8009 ft 296 kts 89°
2026-04-24 11:28 32.09900 34.75832 8004 ft 294 kts 105°
2026-04-24 11:28 32.09383 34.78182 8013 ft 304 kts 105°
2026-04-24 11:28 32.08820 34.80740 8011 ft 339 kts 105°
2026-04-24 11:28 32.08206 34.83552 8003 ft 365 kts 104°
2026-04-24 11:29 32.07572 34.86484 8006 ft 371 kts 104°
2026-04-24 11:29 32.06931 34.89447 8007 ft 374 kts 104°
2026-04-24 11:29 32.06288 34.92425 8008 ft 375 kts 104°
2026-04-24 11:29 32.05646 34.95403 8008 ft 375 kts 104°
2026-04-24 11:30 32.05006 34.98371 8007 ft 375 kts 104°
2026-04-24 11:30 32.04364 35.01348 8004 ft 375 kts 105°
2026-04-24 11:30 32.03723 35.04324 8008 ft 374 kts 105°
2026-04-24 11:30 32.03083 35.07281 8008 ft 373 kts 105°
2026-04-24 11:31 32.02438 35.10247 8010 ft 374 kts 105°
2026-04-24 11:31 32.01791 35.13211 8007 ft 373 kts 105°
2026-04-24 11:31 32.01141 35.16183 8011 ft 378 kts 105°
2026-04-24 11:31 32.00479 35.19209 8008 ft 383 kts 105°
2026-04-24 11:32 31.99810 35.22261 8010 ft 386 kts 105°
2026-04-24 11:32 31.99140 35.25315 8010 ft 385 kts 105°
2026-04-24 11:32 31.98468 35.28379 8207 ft 390 kts 105°
2026-04-24 11:32 31.97790 35.31467 9041 ft 389 kts 105°
2026-04-24 11:33 31.97110 35.34568 9708 ft 393 kts 106°
2026-04-24 11:33 31.96425 35.37683 9941 ft 393 kts 106°
2026-04-24 11:33 31.95738 35.40807 10040 ft 396 kts 106°
2026-04-24 11:33 31.95042 35.43956 10687 ft 395 kts 106°
2026-04-24 11:34 31.94365 35.47018 11926 ft 380 kts 107°
2026-04-24 11:34 31.93710 35.50028 12728 ft 381 kts 104°
2026-04-24 11:34 31.93297 35.53127 13382 ft 386 kts 97°
2026-04-24 11:34 31.93143 35.56298 13974 ft 390 kts 98°
2026-04-24 11:35 31.92608 35.59422 14532 ft 390 kts 110°
2026-04-24 11:35 31.91560 35.62305 15089 ft 388 kts 123°
2026-04-24 11:35 31.90025 35.64904 15650 ft 386 kts 135°
2026-04-24 11:35 31.88119 35.67122 16217 ft 386 kts 142°
2026-04-24 11:36 31.86126 35.69252 16781 ft 389 kts 142°
2026-04-24 11:36 31.84119 35.71397 17352 ft 391 kts 142°
2026-04-24 11:36 31.82098 35.73557 17931 ft 394 kts 142°
2026-04-24 11:36 31.80062 35.75732 18461 ft 397 kts 142°
2026-04-24 11:37 31.78012 35.77918 18989 ft 399 kts 142°
2026-04-24 11:37 31.75947 35.80115 19481 ft 402 kts 142°
2026-04-24 11:37 31.73868 35.82333 19983 ft 405 kts 142°
2026-04-24 11:37 31.71777 35.84565 20477 ft 408 kts 142°
2026-04-24 11:38 31.69669 35.86816 20939 ft 411 kts 142°
2026-04-24 11:38 31.67545 35.89080 21385 ft 414 kts 142°
2026-04-24 11:38 31.65406 35.91356 21822 ft 417 kts 142°
2026-04-24 11:38 31.63250 35.93646 22263 ft 419 kts 142°
2026-04-24 11:39 31.61082 35.95949 22697 ft 422 kts 142°
2026-04-24 11:39 31.58896 35.98268 23114 ft 425 kts 142°
2026-04-24 11:39 31.56697 36.00599 23528 ft 428 kts 142°
2026-04-24 11:39 31.54482 36.02946 23888 ft 430 kts 142°
2026-04-24 11:40 31.52256 36.05303 24246 ft 432 kts 143°
2026-04-24 11:40 31.50018 36.07672 24605 ft 434 kts 143°
2026-04-24 11:40 31.47771 36.10050 24961 ft 436 kts 143°
2026-04-24 11:40 31.45513 36.12440 25313 ft 438 kts 143°
2026-04-24 11:41 31.43248 36.14839 25668 ft 440 kts 143°
2026-04-24 11:41 31.40970 36.17247 26026 ft 442 kts 143°
2026-04-24 11:41 31.38680 36.19665 26378 ft 444 kts 143°
2026-04-24 11:41 31.36379 36.22093 26740 ft 446 kts 143°
2026-04-24 11:42 31.34091 36.24567 27095 ft 451 kts 139°
2026-04-24 11:42 31.32111 36.27457 27421 ft 461 kts 127°
2026-04-24 11:42 31.30619 36.30806 27755 ft 470 kts 115°
2026-04-24 11:42 31.29708 36.34510 28079 ft 479 kts 103°
2026-04-24 11:43 31.29442 36.38410 28491 ft 484 kts 91°
2026-04-24 11:43 31.29808 36.42330 28946 ft 486 kts 83°
2026-04-24 11:43 31.30328 36.46234 29413 ft 486 kts 84°
2026-04-24 11:43 31.30843 36.50131 29889 ft 485 kts 84°
2026-04-24 11:44 31.31104 36.52716 30157 ft 482 kts 89°
2026-04-24 11:44 31.31108 36.56609 30547 ft 477 kts 98°
2026-04-24 11:44 31.30825 36.60465 30940 ft 476 kts 98°
2026-04-24 11:44 31.30539 36.64317 31322 ft 475 kts 98°
2026-04-24 11:45 31.30255 36.68163 31728 ft 475 kts 98°
2026-04-24 11:45 31.29973 36.72006 32130 ft 474 kts 98°
2026-04-24 11:45 31.29692 36.75842 32519 ft 473 kts 99°
2026-04-24 11:45 31.29409 36.79677 32910 ft 473 kts 99°
2026-04-24 11:46 31.29126 36.83505 33311 ft 473 kts 99°
2026-04-24 11:46 31.28842 36.87329 33708 ft 472 kts 99°
2026-04-24 11:46 31.28558 36.91149 34077 ft 472 kts 99°
2026-04-24 11:46 31.28272 36.94974 34369 ft 472 kts 98°
2026-04-24 11:47 31.27985 36.98800 34653 ft 473 kts 99°
2026-04-24 11:47 31.27697 37.02632 34916 ft 474 kts 99°
2026-04-24 11:47 31.27407 37.06470 35192 ft 474 kts 99°
2026-04-24 11:47 31.27116 37.10306 35469 ft 474 kts 99°
2026-04-24 11:48 31.26821 37.14145 35744 ft 474 kts 99°
2026-04-24 11:48 31.26521 37.17983 36011 ft 474 kts 99°
2026-04-24 11:48 31.26206 37.21819 36273 ft 473 kts 102°
2026-04-24 11:48 31.25573 37.25566 36511 ft 467 kts 112°
2026-04-24 11:49 31.24559 37.29145 36757 ft 463 kts 116°
2026-04-24 11:49 31.23481 37.32702 36869 ft 465 kts 116°
2026-04-24 11:49 31.21313 37.39854 36899 ft 474 kts 116°
2026-04-24 11:50 31.19111 37.47135 36896 ft 476 kts 115°
2026-04-24 11:50 31.16900 37.54423 36903 ft 477 kts 116°
2026-04-24 11:51 31.14684 37.61717 36902 ft 477 kts 116°
2026-04-24 11:51 31.12474 37.69012 36904 ft 477 kts 116°
2026-04-24 11:52 31.10260 37.76307 36895 ft 477 kts 116°
2026-04-24 11:52 31.08030 37.83597 36897 ft 477 kts 116°
2026-04-24 11:53 31.05795 37.90884 36906 ft 477 kts 116°
2026-04-24 11:53 31.03569 37.98173 36898 ft 477 kts 116°
2026-04-24 11:54 31.01333 38.05462 36902 ft 477 kts 117°
2026-04-24 11:54 30.99090 38.12745 36906 ft 478 kts 117°
2026-04-24 11:55 30.96840 38.20026 36890 ft 478 kts 117°
2026-04-24 11:55 30.94586 38.27305 36894 ft 478 kts 117°
2026-04-24 11:56 30.92326 38.34586 36899 ft 478 kts 117°
2026-04-24 11:56 30.90058 38.41867 36910 ft 478 kts 117°
2026-04-24 11:57 30.87795 38.49146 36918 ft 478 kts 117°
2026-04-24 11:57 30.85520 38.56423 36920 ft 478 kts 117°
2026-04-24 11:58 30.83243 38.63693 36919 ft 478 kts 117°
2026-04-24 11:58 30.80965 38.70961 36906 ft 479 kts 117°
2026-04-24 11:59 30.78588 38.78176 36911 ft 473 kts 124°
2026-04-24 11:59 30.75662 38.85003 36917 ft 472 kts 124°
2026-04-24 12:00 30.72732 38.91839 36904 ft 473 kts 124°
2026-04-24 12:00 30.69795 38.98676 36912 ft 473 kts 124°
2026-04-24 12:01 30.66854 39.05527 36924 ft 474 kts 124°
2026-04-24 12:01 30.63906 39.12377 36908 ft 474 kts 125°
2026-04-24 12:02 30.60943 39.19222 36914 ft 475 kts 125°
2026-04-24 12:02 30.57972 39.26082 36925 ft 476 kts 125°
2026-04-24 12:03 30.54999 39.32948 36933 ft 476 kts 125°
2026-04-24 12:03 30.52019 39.39818 36929 ft 477 kts 125°
2026-04-24 12:04 30.49038 39.46689 36937 ft 477 kts 125°
2026-04-24 12:04 30.46047 39.53558 36946 ft 477 kts 126°
2026-04-24 12:05 30.43051 39.60424 36938 ft 477 kts 126°
2026-04-24 12:05 30.40074 39.67307 36946 ft 479 kts 124°
2026-04-24 12:06 30.37263 39.74335 36949 ft 482 kts 122°
2026-04-24 12:06 30.34528 39.81420 36938 ft 482 kts 122°
2026-04-24 12:07 30.31778 39.88435 36943 ft 482 kts 123°
2026-04-24 12:07 30.28969 39.95478 36950 ft 482 kts 123°
2026-04-24 12:08 30.26143 40.02506 36955 ft 482 kts 123°
2026-04-24 12:08 30.23311 40.09535 36943 ft 482 kts 123°
2026-04-24 12:09 30.20488 40.16566 36947 ft 482 kts 123°
2026-04-24 12:09 30.17665 40.23596 36964 ft 482 kts 123°
2026-04-24 12:10 30.14830 40.30614 36940 ft 482 kts 123°
2026-04-24 12:11 30.10577 40.41130 36954 ft 482 kts 123°
2026-04-24 12:11 30.07747 40.48143 36938 ft 482 kts 123°
2026-04-24 12:12 30.04907 40.55147 36943 ft 482 kts 123°
2026-04-24 12:12 30.02060 40.62146 36950 ft 482 kts 123°
2026-04-24 12:13 29.99216 40.69150 36950 ft 482 kts 123°
2026-04-24 12:13 29.96366 40.76147 36953 ft 482 kts 123°
2026-04-24 12:14 29.93513 40.83136 36958 ft 482 kts 123°
2026-04-24 12:14 29.90666 40.90073 36958 ft 482 kts 123°
2026-04-24 12:15 29.87801 40.97049 36942 ft 482 kts 124°
2026-04-24 12:15 29.84933 41.04031 36948 ft 482 kts 124°
2026-04-24 12:16 29.82064 41.11012 36956 ft 482 kts 124°
2026-04-24 12:16 29.79187 41.17986 36938 ft 482 kts 124°
2026-04-24 12:17 29.76295 41.24957 36938 ft 483 kts 124°
2026-04-24 12:17 29.73484 41.31996 36943 ft 490 kts 118°
2026-04-24 12:18 29.71207 41.39346 36935 ft 491 kts 118°
2026-04-24 12:18 29.68896 41.46802 36934 ft 492 kts 118°
2026-04-24 12:19 29.66584 41.54209 36945 ft 492 kts 118°
2026-04-24 12:19 29.64280 41.61564 36935 ft 493 kts 118°
2026-04-24 12:20 29.61958 41.68979 36939 ft 493 kts 118°
2026-04-24 12:20 29.59617 41.76443 36943 ft 493 kts 118°
2026-04-24 12:21 29.57300 41.83805 36935 ft 493 kts 119°
2026-04-24 12:21 29.54953 41.91207 36942 ft 493 kts 119°
2026-04-24 12:22 29.52608 41.98610 36942 ft 493 kts 119°
2026-04-24 12:22 29.50260 42.06009 36929 ft 493 kts 119°
2026-04-24 12:23 29.47919 42.13408 36937 ft 493 kts 119°
2026-04-24 12:23 29.45571 42.20808 36921 ft 493 kts 119°
2026-04-24 12:24 29.43210 42.28203 36925 ft 494 kts 119°
2026-04-24 12:24 29.40835 42.35595 36930 ft 494 kts 119°
2026-04-24 12:25 29.38460 42.42997 36928 ft 495 kts 119°
2026-04-24 12:25 29.36088 42.50407 36934 ft 495 kts 119°
2026-04-24 12:26 29.33708 42.57809 36935 ft 495 kts 119°
2026-04-24 12:26 29.31333 42.65156 36920 ft 495 kts 119°
2026-04-24 12:27 29.28937 42.72544 36934 ft 495 kts 119°
2026-04-24 12:27 29.26540 42.79932 36947 ft 495 kts 119°
2026-04-24 12:28 29.24147 42.87319 36946 ft 495 kts 119°
2026-04-24 12:28 29.21754 42.94698 36943 ft 494 kts 119°
2026-04-24 12:29 29.19347 43.02066 36945 ft 494 kts 120°
2026-04-24 12:29 29.16926 43.09432 36932 ft 493 kts 121°
2026-04-24 12:29 29.15484 43.12936 36941 ft 482 kts 130°
2026-04-24 12:30 29.13796 43.16234 36931 ft 480 kts 130°
2026-04-24 12:30 29.10424 43.22828 36936 ft 481 kts 130°
2026-04-24 12:31 29.07051 43.29434 36936 ft 481 kts 130°
2026-04-24 12:31 29.03667 43.36036 36940 ft 482 kts 130°
2026-04-24 12:32 29.00272 43.42634 36943 ft 482 kts 130°
2026-04-24 12:32 28.97430 43.48161 36932 ft 482 kts 130°
2026-04-24 12:33 28.94061 43.54713 36946 ft 481 kts 130°
2026-04-24 12:33 28.90666 43.61300 36956 ft 481 kts 130°
2026-04-24 12:34 28.87268 43.67881 36952 ft 481 kts 129°
2026-04-24 12:34 28.83869 43.74452 36960 ft 481 kts 129°
2026-04-24 12:35 28.80465 43.81012 36963 ft 480 kts 130°
2026-04-24 12:35 28.77066 43.87562 36958 ft 480 kts 129°
2026-04-24 12:36 28.73662 43.94109 36966 ft 480 kts 129°
2026-04-24 12:36 28.70250 44.00659 36968 ft 480 kts 129°
2026-04-24 12:37 28.66847 44.07203 36962 ft 480 kts 129°
2026-04-24 12:37 28.63433 44.13736 36963 ft 480 kts 129°
2026-04-24 12:38 28.60009 44.20276 36973 ft 481 kts 129°
2026-04-24 12:38 28.56602 44.26772 36958 ft 482 kts 129°
2026-04-24 12:39 28.49728 44.39869 36946 ft 483 kts 129°
2026-04-24 12:40 28.46269 44.46437 36943 ft 485 kts 130°
2026-04-24 12:40 28.42791 44.53018 36952 ft 486 kts 130°
2026-04-24 12:41 28.39310 44.59603 36978 ft 487 kts 130°
2026-04-24 12:41 28.35827 44.66200 36957 ft 487 kts 130°
2026-04-24 12:42 28.32338 44.72797 36960 ft 488 kts 130°
2026-04-24 12:42 28.28840 44.79395 36968 ft 488 kts 130°
2026-04-24 12:43 28.25336 44.85992 36961 ft 488 kts 130°
2026-04-24 12:43 28.21826 44.92581 36972 ft 488 kts 130°
2026-04-24 12:44 28.18313 44.99166 36976 ft 488 kts 130°
2026-04-24 12:44 28.14796 45.05743 36970 ft 488 kts 130°
2026-04-24 12:45 28.11297 45.12280 36971 ft 489 kts 130°
2026-04-24 12:45 28.07784 45.18867 36962 ft 488 kts 130°
2026-04-24 12:46 28.04270 45.25455 36962 ft 489 kts 130°
2026-04-24 12:46 28.00744 45.32028 36967 ft 489 kts 130°
2026-04-24 12:47 27.97207 45.38600 36956 ft 489 kts 130°
2026-04-24 12:47 27.93672 45.45158 36978 ft 488 kts 130°
2026-04-24 12:48 27.90142 45.51708 36986 ft 488 kts 130°
2026-04-24 12:48 27.87392 45.58850 36991 ft 508 kts 111°
2026-04-24 12:49 27.85797 45.66666 36961 ft 511 kts 110°
2026-04-24 12:49 27.84186 45.74497 36961 ft 512 kts 110°
2026-04-24 12:50 27.82563 45.82338 36957 ft 513 kts 109°
2026-04-24 12:50 27.80943 45.90193 36961 ft 514 kts 109°
2026-04-24 12:51 27.79317 45.98057 36960 ft 514 kts 110°
2026-04-24 12:51 27.77687 46.05916 36976 ft 514 kts 110°
2026-04-24 12:52 27.76041 46.13763 36987 ft 514 kts 110°
2026-04-24 12:52 27.74389 46.21611 36985 ft 514 kts 109°
2026-04-24 12:53 27.72758 46.29420 36985 ft 515 kts 109°
2026-04-24 12:53 27.71125 46.37284 36992 ft 514 kts 110°
2026-04-24 12:54 27.69490 46.45125 36991 ft 513 kts 110°
2026-04-24 12:54 27.67850 46.52953 36987 ft 512 kts 110°
2026-04-24 12:55 27.66196 46.60769 36976 ft 513 kts 110°
2026-04-24 12:55 27.64530 46.68599 36953 ft 514 kts 110°
2026-04-24 12:56 27.62875 46.76429 36998 ft 512 kts 110°
2026-04-24 12:56 27.61223 46.84226 37005 ft 510 kts 110°
2026-04-24 12:57 27.59568 46.91994 37000 ft 509 kts 110°
2026-04-24 12:57 27.57912 46.99735 36984 ft 508 kts 110°
2026-04-24 12:58 27.56247 47.07482 36975 ft 508 kts 109°
2026-04-24 12:58 27.54588 47.15208 37000 ft 506 kts 109°
2026-04-24 12:59 27.52936 47.22902 36989 ft 505 kts 109°
2026-04-24 12:59 27.51272 47.30584 36988 ft 505 kts 109°
2026-04-24 13:00 27.49600 47.38258 36988 ft 504 kts 109°
2026-04-24 13:00 27.47929 47.45933 36982 ft 504 kts 109°
2026-04-24 13:01 27.46260 47.53590 37001 ft 503 kts 109°
2026-04-24 13:01 27.44586 47.61213 37002 ft 501 kts 110°
2026-04-24 13:02 27.42690 47.68746 36985 ft 499 kts 114°
2026-04-24 13:02 27.40520 47.76098 36985 ft 498 kts 115°
2026-04-24 13:03 27.38309 47.83487 36974 ft 499 kts 114°
2026-04-24 13:03 27.36174 47.90924 36972 ft 500 kts 113°
2026-04-24 13:04 27.34075 47.98385 36981 ft 501 kts 113°
2026-04-24 13:04 27.31951 48.05848 36970 ft 501 kts 113°
2026-04-24 13:05 27.29836 48.13324 36966 ft 502 kts 112°
2026-04-24 13:05 27.27849 48.20863 36969 ft 503 kts 111°
2026-04-24 13:06 27.25899 48.28420 36978 ft 504 kts 111°
2026-04-24 13:06 27.23916 48.35963 36978 ft 503 kts 112°
2026-04-24 13:07 27.21899 48.43496 36979 ft 503 kts 112°
2026-04-24 13:07 27.19879 48.51025 36959 ft 503 kts 111°
2026-04-24 13:08 27.17864 48.58549 36973 ft 503 kts 111°
2026-04-24 13:08 27.15846 48.66075 36965 ft 503 kts 111°
2026-04-24 13:09 27.12804 48.77359 36962 ft 504 kts 111°
2026-04-24 13:09 27.10771 48.84886 36945 ft 504 kts 111°
2026-04-24 13:10 27.09633 48.92691 36939 ft 512 kts 95°
2026-04-24 13:10 27.09291 49.00668 36944 ft 512 kts 95°
2026-04-24 13:11 27.08922 49.08652 36949 ft 512 kts 96°
2026-04-24 13:11 27.08547 49.16589 36943 ft 513 kts 96°
2026-04-24 13:12 27.08170 49.24586 36941 ft 513 kts 95°
2026-04-24 13:12 27.07793 49.32590 36943 ft 514 kts 96°
2026-04-24 13:13 27.07399 49.40601 36928 ft 515 kts 96°
2026-04-24 13:13 27.07000 49.48627 36931 ft 515 kts 96°
2026-04-24 13:14 27.06604 49.56713 36928 ft 516 kts 95°
2026-04-24 13:14 27.06216 49.64692 36935 ft 516 kts 95°
2026-04-24 13:15 27.05812 49.72726 36941 ft 516 kts 96°
2026-04-24 13:15 27.05402 49.80756 36952 ft 516 kts 96°
2026-04-24 13:16 27.04989 49.88783 36957 ft 515 kts 96°
2026-04-24 13:16 27.04572 49.96805 36952 ft 515 kts 95°
2026-04-24 13:17 27.04432 50.04847 36930 ft 517 kts 90°
2026-04-24 13:17 27.04617 50.12907 36930 ft 517 kts 89°
2026-04-24 13:18 27.04816 50.20978 36934 ft 518 kts 90°
2026-04-24 13:18 27.04898 50.29059 36934 ft 518 kts 91°
2026-04-24 13:19 27.04422 50.37086 36923 ft 514 kts 105°
2026-04-24 13:19 27.02199 50.44606 36914 ft 506 kts 118°
2026-04-24 13:20 26.99443 50.51876 36892 ft 507 kts 118°
2026-04-24 13:20 26.97153 50.57926 36899 ft 507 kts 118°
2026-04-24 13:21 26.93945 50.66392 36911 ft 508 kts 118°
2026-04-24 13:21 26.91175 50.73669 36926 ft 508 kts 118°
2026-04-24 13:22 26.88842 50.79763 36923 ft 508 kts 118°
2026-04-24 13:22 26.86062 50.87035 36903 ft 508 kts 118°
2026-04-24 13:23 26.83281 50.94298 36915 ft 508 kts 118°
2026-04-24 13:23 26.80522 51.01518 36918 ft 508 kts 118°
2026-04-24 13:24 26.77756 51.08794 36921 ft 508 kts 118°
2026-04-24 13:24 26.75190 51.16178 36919 ft 510 kts 114°
2026-04-24 13:25 26.72877 51.23691 36908 ft 511 kts 113°
2026-04-24 13:25 26.70574 51.31204 36920 ft 510 kts 114°
2026-04-24 13:26 26.68189 51.38673 36915 ft 510 kts 115°
2026-04-24 13:26 26.65757 51.46115 36918 ft 510 kts 115°
2026-04-24 13:27 26.63335 51.53557 36917 ft 510 kts 114°
2026-04-24 13:27 26.60937 51.61013 36905 ft 510 kts 114°
2026-04-24 13:28 26.58547 51.68468 36908 ft 510 kts 114°
2026-04-24 13:28 26.56148 51.75924 36911 ft 510 kts 114°
2026-04-24 13:29 26.53734 51.83367 36904 ft 510 kts 114°
2026-04-24 13:29 26.51306 51.90803 36908 ft 509 kts 114°
2026-04-24 13:30 26.48838 51.98217 36897 ft 510 kts 114°
2026-04-24 13:30 26.46352 52.05630 36893 ft 510 kts 114°
2026-04-24 13:31 26.43872 52.13048 36893 ft 511 kts 114°
2026-04-24 13:31 26.41415 52.20425 36897 ft 511 kts 114°
2026-04-24 13:32 26.38939 52.27848 36900 ft 511 kts 114°
2026-04-24 13:32 26.36444 52.35265 36886 ft 511 kts 114°
2026-04-24 13:33 26.33873 52.42644 36892 ft 510 kts 116°
2026-04-24 13:33 26.31077 52.49903 36893 ft 509 kts 117°
2026-04-24 13:34 26.28214 52.57121 36899 ft 510 kts 117°
2026-04-24 13:34 26.25387 52.64366 36899 ft 510 kts 117°
2026-04-24 13:35 26.22605 52.71638 36885 ft 510 kts 116°
2026-04-24 13:35 26.19841 52.78919 36884 ft 511 kts 116°
2026-04-24 13:36 26.17059 52.86198 36888 ft 511 kts 116°
2026-04-24 13:36 26.14265 52.93466 36890 ft 511 kts 116°
2026-04-24 13:37 26.11460 53.00732 36894 ft 511 kts 116°
2026-04-24 13:37 26.08675 53.08003 36879 ft 511 kts 115°
2026-04-24 13:38 26.05994 53.15323 36882 ft 511 kts 115°
2026-04-24 13:38 26.03346 53.22664 36885 ft 511 kts 115°
2026-04-24 13:39 26.00662 53.29983 36883 ft 511 kts 115°
2026-04-24 13:39 25.97951 53.37280 36880 ft 511 kts 115°
2026-04-24 13:40 25.95243 53.44576 36885 ft 511 kts 115°
2026-04-24 13:40 25.92571 53.51828 36891 ft 510 kts 114°
2026-04-24 13:41 25.90017 53.59173 36889 ft 509 kts 113°
2026-04-24 13:41 25.87532 53.66536 36888 ft 509 kts 113°
2026-04-24 13:42 25.85027 53.73877 36892 ft 508 kts 114°
2026-04-24 13:42 25.82485 53.81197 36868 ft 508 kts 114°
2026-04-24 13:43 25.79928 53.88515 35817 ft 511 kts 114°
2026-04-24 13:43 25.78635 53.92217 34430 ft 518 kts 113°
2026-04-24 13:43 25.77334 53.95944 33156 ft 517 kts 114°
2026-04-24 13:44 25.76038 53.99661 31778 ft 517 kts 114°
2026-04-24 13:44 25.74765 54.03387 30375 ft 516 kts 113°
2026-04-24 13:44 25.73561 54.07145 28735 ft 520 kts 111°
2026-04-24 13:44 25.72400 54.10972 27595 ft 525 kts 111°
2026-04-24 13:45 25.71267 54.14816 26613 ft 523 kts 110°
2026-04-24 13:45 25.70141 54.18649 25558 ft 523 kts 110°
2026-04-24 13:45 25.68999 54.22481 24476 ft 524 kts 111°
2026-04-24 13:45 25.67838 54.26290 23665 ft 518 kts 111°
2026-04-24 13:46 25.66678 54.30035 22806 ft 510 kts 111°
2026-04-24 13:46 25.65526 54.33726 21896 ft 503 kts 111°
2026-04-24 13:46 25.64389 54.37366 20987 ft 497 kts 111°
2026-04-24 13:46 25.63266 54.40963 20106 ft 491 kts 110°
2026-04-24 13:47 25.62158 54.44512 19335 ft 484 kts 110°
2026-04-24 13:47 25.61065 54.48012 18553 ft 478 kts 110°
2026-04-24 13:47 25.59988 54.51471 17709 ft 473 kts 110°
2026-04-24 13:47 25.58925 54.54899 16947 ft 469 kts 109°
2026-04-24 13:48 25.58222 54.58428 15914 ft 469 kts 96°
2026-04-24 13:48 25.58207 54.61989 15296 ft 458 kts 85°
2026-04-24 13:48 25.58619 54.65458 14555 ft 451 kts 82°
2026-04-24 13:48 25.59049 54.68874 13834 ft 445 kts 83°
2026-04-24 13:49 25.59475 54.72252 13107 ft 440 kts 82°
2026-04-24 13:49 25.59894 54.75553 12744 ft 425 kts 82°
2026-04-24 13:49 25.60302 54.78766 12438 ft 420 kts 82°
2026-04-24 13:49 25.60705 54.81965 12268 ft 420 kts 82°
2026-04-24 13:50 25.61008 54.85130 12085 ft 418 kts 91°
2026-04-24 13:50 25.60498 54.88269 11904 ft 414 kts 111°
2026-04-24 13:50 25.59398 54.91215 11737 ft 414 kts 114°
2026-04-24 13:50 25.58263 54.94137 11565 ft 413 kts 115°
2026-04-24 13:51 25.57115 54.97049 11390 ft 412 kts 115°
2026-04-24 13:51 25.55964 54.99955 11221 ft 411 kts 115°
2026-04-24 13:51 25.54814 55.02849 11053 ft 411 kts 116°
2026-04-24 13:51 25.53515 55.05662 10830 ft 409 kts 120°
2026-04-24 13:52 25.52141 55.08413 10591 ft 408 kts 121°
2026-04-24 13:52 25.50720 55.11127 10355 ft 407 kts 122°
2026-04-24 13:52 25.49268 55.13843 10113 ft 414 kts 122°
2026-04-24 13:52 25.47795 55.16590 9869 ft 415 kts 122°
2026-04-24 13:53 25.46317 55.19336 9617 ft 415 kts 125°
2026-04-24 13:53 25.44535 55.21812 9375 ft 410 kts 132°
2026-04-24 13:53 25.42661 55.24177 9126 ft 408 kts 133°
2026-04-24 13:53 25.40764 55.26502 8899 ft 406 kts 134°
2026-04-24 13:54 25.38855 55.28806 8662 ft 406 kts 134°
2026-04-24 13:54 25.36952 55.31101 8459 ft 405 kts 134°
2026-04-24 13:54 25.35155 55.33494 8280 ft 405 kts 128°
2026-04-24 13:54 25.33551 55.36047 7904 ft 401 kts 124°
2026-04-24 13:55 25.32076 55.38647 7204 ft 397 kts 122°
2026-04-24 13:55 25.30695 55.41239 6703 ft 387 kts 121°
2026-04-24 13:55 25.29354 55.43790 6197 ft 379 kts 121°
2026-04-24 13:55 25.28052 55.46242 6025 ft 361 kts 122°
2026-04-24 13:56 25.26786 55.48583 5764 ft 350 kts 122°
2026-04-24 13:56 25.25537 55.50855 5497 ft 340 kts 122°
2026-04-24 13:56 25.24312 55.53058 5166 ft 334 kts 122°
2026-04-24 13:56 25.23096 55.55233 4746 ft 332 kts 123°
2026-04-24 13:57 25.21884 55.57398 4323 ft 330 kts 122°
2026-04-24 13:57 25.20685 55.59545 3973 ft 325 kts 123°
2026-04-24 13:57 25.19535 55.61615 3771 ft 317 kts 122°
2026-04-24 13:57 25.18387 55.63683 3650 ft 315 kts 122°
2026-04-24 13:58 25.17169 55.65685 3537 ft 314 kts 134°
2026-04-24 13:58 25.15439 55.67078 3484 ft 303 kts 159°
2026-04-24 13:58 25.13451 55.67508 3436 ft 285 kts 186°
2026-04-24 13:58 25.11587 55.66938 3385 ft 278 kts 212°
2026-04-24 13:59 25.10226 55.65505 3346 ft 272 kts 240°
2026-04-24 13:59 25.09744 55.63552 3312 ft 261 kts 274°
2026-04-24 13:59 25.10381 55.61720 3311 ft 257 kts 309°
2026-04-24 13:59 25.11748 55.60526 3309 ft 246 kts 322°
2026-04-24 14:00 25.12845 55.59212 3305 ft 226 kts 294°
2026-04-24 14:00 25.13504 55.57692 3298 ft 212 kts 297°
2026-04-24 14:00 25.14235 55.56318 3265 ft 204 kts 300°
2026-04-24 14:00 25.14970 55.54997 3095 ft 199 kts 299°
2026-04-24 14:01 25.15678 55.53726 2860 ft 190 kts 300°
2026-04-24 14:01 25.16365 55.52491 2626 ft 188 kts 301°
2026-04-24 14:01 25.17038 55.51282 2391 ft 183 kts 302°
2026-04-24 14:01 25.17697 55.50098 2165 ft 178 kts 302°
2026-04-24 14:02 25.18319 55.48979 1948 ft 165 kts 304°
2026-04-24 14:02 25.18882 55.47962 1753 ft 149 kts 305°
2026-04-24 14:02 25.19420 55.47007 1560 ft 143 kts 306°
2026-04-24 14:02 25.19942 55.46093 1369 ft 139 kts 306°
2026-04-24 14:03 25.20440 55.45184 1205 ft 137 kts 306°
2026-04-24 14:03 25.20930 55.44289 1045 ft 136 kts 307°
2026-04-24 14:03 25.21423 55.43392 902 ft 136 kts 306°
2026-04-24 14:03 25.21916 55.42492 708 ft 137 kts 303°
2026-04-24 14:04 25.22422 55.41597 524 ft 136 kts 302°
2026-04-24 14:04 25.22899 55.40728 356 ft 131 kts 301°
2026-04-24 14:04 25.23374 55.39873 170 ft 131 kts 303°
2026-04-24 14:04 25.23846 55.39019 30 ft 122 kts 303°
2026-04-24 14:05 25.24225 55.38344 28 ft 80 kts 301°
2026-04-24 14:05 25.24447 55.37942 25 ft 51 kts 301°
2026-04-24 14:05 25.24619 55.37629 22 ft 45 kts 302°
2026-04-24 14:05 25.24757 55.37350 24 ft 37 kts 288°
2026-04-24 14:06 25.24784 55.37144 24 ft 18 kts 274°
2026-04-24 14:06 25.24786 55.37061 23 ft 10 kts 270°
2026-04-24 14:06 25.24787 55.37010 22 ft 6 kts 272°
2026-04-24 14:06 25.24798 55.36955 22 ft 9 kts 293°
2026-04-24 14:07 25.24829 55.36895 23 ft 9 kts 298°
2026-04-24 14:07 25.24853 55.36836 23 ft 8 kts 287°
2026-04-24 14:07 25.24864 55.36775 22 ft 8 kts 279°
2026-04-24 14:07 25.24869 55.36744 22 ft 3 kts 283°
2026-04-24 14:08 25.24878 55.36710 22 ft 6 kts 287°
2026-04-24 14:08 25.24900 55.36654 22 ft 10 kts 298°
2026-04-24 14:08 25.24940 55.36579 21 ft 13 kts 302°
2026-04-24 14:08 25.24993 55.36485 22 ft 16 kts 302°
2026-04-24 14:09 25.25056 55.36373 21 ft 19 kts 302°
2026-04-24 14:09 25.25130 55.36242 22 ft 21 kts 302°
2026-04-24 14:09 25.25212 55.36096 21 ft 24 kts 301°
2026-04-24 14:09 25.25303 55.35935 23 ft 26 kts 302°
2026-04-24 14:10 25.25368 55.35820 21 ft 27 kts 302°
2026-04-24 14:10 25.25495 55.35594 22 ft 23 kts 302°
2026-04-24 14:10 25.25577 55.35448 21 ft 21 kts 302°
2026-04-24 14:10 25.25652 55.35317 21 ft 19 kts 302°
2026-04-24 14:11 25.25691 55.35245 23 ft 17 kts 301°
2026-04-24 14:11 25.25755 55.35131 21 ft 18 kts 301°
2026-04-24 14:11 25.25681 55.34947 21 ft 17 kts 211°
2026-04-24 14:12 25.25578 55.34878 21 ft 18 kts 212°
2026-04-24 14:12 25.25518 55.34839 21 ft 2 kts 209°
2026-04-24 14:12 25.25510 55.34834 21 ft 2 kts 214°
2026-04-24 14:12 25.25505 55.34819 22 ft 3 kts 265°
2026-04-24 14:13 25.25521 55.34787 21 ft 6 kts 302°
2026-04-24 14:13 25.25546 55.34744 23 ft 5 kts 302°
2026-04-24 14:13 25.25553 55.34731 21 ft 0 kts 302°